Regional Weather Roundup
Issued by NWS

Home | Current Version | Previous Version | Graphics & Text | Print | Product List | Glossary On
Versions: 1 2 3 4 5 6 7 8 9 10 11 12 13 14 15 16 17 18 19 20 21 22 23 24 25 26 27 28 29 30 31 32 33 34 35 36 37 38 39 40 41 42 43 44 45 46 47 48 49 50
000
ASUS43 KOAX 311710
RWRNE

WEATHER ROUNDUP FOR NEBRASKA
NATIONAL WEATHER SERVICE OMAHA NE
1200 PM CDT FRI OCT 31 2014

NOTES: SATELLITE DATA IS BEING USED TO AUGMENT CLOUD COVER ABOVE
       12000 FEET.
       "FAIR" INDICATES FEW OR NO CLOUDS BELOW 12,000 FEET WITH NO
       SIGNIFICANT WEATHER AND/OR OBSTRUCTIONS TO VISIBILITY.

  * THESE STATIONS DO NOT REPORT WEATHER SUCH AS RAIN...SNOW OR FOG.

NEZ001>004-019>022-054>056-311800-
NEBRASKA PANHANDLE

CITY           SKY/WX    TMP DP  RH WIND       PRES   REMARKS
SCOTTSBLUFF    MOSUNNY   41  32  70 SE16G25   30.34F
ALLIANCE       CLOUDY    34  31  88 S17       30.37F WCI  23
CHADRON        SUNNY     41  30  65 S17G23    30.33F
KIMBALL        MOSUNNY   37  32  81 S21       30.31F WCI  26
SIDNEY         PTSUNNY   37  30  75 S20       30.37F WCI  27
$$

NEZ057>060-069>072-079>082-311800-
SOUTHWEST NEBRASKA

CITY           SKY/WX    TMP DP  RH WIND       PRES   REMARKS
NORTH PLATTE   MOSUNNY   34  24  67 VRB5      30.51F WCI  30
IMPERIAL       PTSUNNY   32  27  81 SE9G21    30.47F WCI  24
LEXINGTON      SUNNY     34  20  56 SE6       30.55F WCI  29
MCCOOK         SUNNY     36  24  62 VRB3      30.53F
OGALLALA       PTSUNNY   37  30  75 S9        30.45F WCI  30
$$

NEZ005>010-023>029-035>040-094-311800-
NORTH CENTRAL NEBRASKA

CITY           SKY/WX    TMP DP  RH WIND       PRES   REMARKS
VALENTINE      MOSUNNY   34  20  56 S13       30.48F WCI  25
AINSWORTH      SUNNY     34  19  54 S9        30.51F WCI  26
BROKEN BOW     SUNNY     35  20  54 SE3       30.53F
O`NEILL        SUNNY     32  21  62 CALM      30.56F
ORD            SUNNY     33  19  56 CALM      30.55F
THEDFORD       MOSUNNY   35  23  59 S9        30.50F WCI  28
$$

NEZ041-046>049-061>064-073>077-083>087-311800-
SOUTH CENTRAL NEBRASKA

CITY           SKY/WX    TMP DP  RH WIND       PRES   REMARKS
GRAND ISLAND   SUNNY     35  18  49 NE7       30.57F WCI  29
AURORA         SUNNY     34  17  48 NE6       30.57S WCI  29
HASTINGS       SUNNY     35  18  49 N7        30.56F WCI  29
HEBRON         SUNNY     37  14  39 NE8       30.57F WCI  30
HOLDREGE       SUNNY     34  15  46 CALM      30.54F
KEARNEY *      SUNNY     34  16  47 N3        30.56F
YORK           SUNNY     36  18  48 NE9       30.57F WCI  29
$$

NEZ011>018-030>034-042>045-311800-
NORTHEAST NEBRASKA

CITY           SKY/WX    TMP DP  RH WIND       PRES   REMARKS
NORFOLK        SUNNY     36  17  46 NE6       30.57F WCI  31
ALBION         SUNNY     34  17  49 CALM      30.57F
BLAIR          SUNNY     35  20  55 N7        30.56S WCI  29
FREMONT        SUNNY     36  19  50 N8        30.59R WCI  30
TEKAMAH        SUNNY     37  20  50 N14G20    30.59F WCI  28
WAYNE          SUNNY     35  19  51 N7        30.59S WCI  29
$$

NEZ050>053-065>068-078-088>093-311800-
SOUTHEAST NEBRASKA

CITY           SKY/WX    TMP DP  RH WIND       PRES   REMARKS
LINCOLN        SUNNY     38  18  44 NE10      30.59S WCI  31
OMAHA EPPLEY   SUNNY     37  19  48 N10       30.59S WCI  30
BEATRICE       SUNNY     37  19  49 NE9G16    30.56S WCI  30
FALLS CITY     SUNNY     40  19  43 N12G18    30.54F WCI  33
NEBRASKA CITY  SUNNY     37  13  37 N12       30.56S WCI  29
PLATTSMOUTH    SUNNY     36  18  48 N8        30.56S WCI  29
$$

NEZ044-045-051>053-067-311800-
OMAHA AREA

CITY           SKY/WX    TMP DP  RH WIND       PRES   REMARKS
OMAHA EPPLEY   SUNNY     37  19  48 N10       30.59S WCI  30
BLAIR          SUNNY     35  20  55 N7        30.56S WCI  29
FREMONT        SUNNY     36  19  50 N8        30.59R WCI  30
MILLARD        SUNNY     36  20  53 N8        30.58S WCI  29
OFFUTT AFB     SUNNY     37  19  48 NE9       30.57S WCI  30
PLATTSMOUTH    SUNNY     36  18  48 N8        30.56S WCI  29
WAHOO          FAIR      37  17  45 N9        30.58S WCI  30
$$



USA.gov is the U.S. government's official web portal to all federal, state and local government web resources and services.